Sturgis, MI

3:30 AM EDT on March 26, 2017 (GMT -0400)
Kirsch Municipal

Weather History for KIRS - January, 2013

Change the Weather History Date:

Tuesday, January 8, 2013

  Actual Average (KHAI) Record (KHAI)
Temperature  
Mean Temperature 30 °F -  
Max Temperature 37 °F 27 °F 60 °F (1965)
Min Temperature 23 °F 11 °F -16 °F (2014)
Degree Days  
Heating Degree Days 35    
Moisture  
Dew Point 24 °F    
Average Humidity 79    
Maximum Humidity 86    
Minimum Humidity 65    
Precipitation  
Precipitation 0.00 in - - ()
Sea Level Pressure  
Sea Level Pressure 30.16 in    
Wind  
Wind Speed 6 mph (SSW)    
Max Wind Speed 14 mph    
Max Gust Speed -    
Visibility 8 miles    
Events      
Averages and records for this station are not official NWS values.
T = Trace of Precipitation, MM = Missing Value Source: NWS Daily Summary

Daily Weather History Graph

Daily Weather History Graph

Search for Another Location

Airport or City:

Trip Planner

Search our weather history database for the weather conditions in past years. The results will help you decide how hot, cold, wet, or windy it might be!

Date:

Astronomy

Jan. 08, 2013 Rise Set
Actual Time 8:08 AM EST 5:28 PM EST
Civil Twilight 7:37 AM EST 5:59 PM EST
Nautical Twilight 7:03 AM EST 6:34 PM EST
Astronomical Twilight 6:29 AM EST 7:08 PM EST
Moon 4:40 AM EST (1/8) 2:30 PM EST (1/8)
Length of Visible Light 10h 22m
Length of Day
9h 19m
Waning Crescent, 14% of the Moon is Illuminated
Jan 8
Waning Crescent
Jan 11
New
Jan 18
First Quarter
Jan 26
Full
Feb 3
Last Quarter

Hourly Weather History & Observations

Time (EST) Temp. Windchill Dew Point Humidity Pressure Visibility Wind Dir Wind Speed Gust Speed Precip Events Conditions
12:15 AM 24.8 °F 19.1 °F 21.2 °F 86% 30.15 in 10.0 mi SW 4.6 mph - N/A   Clear
12:35 AM 23.0 °F 17.0 °F 19.4 °F 86% 30.14 in 10.0 mi WSW 4.6 mph - N/A   Clear
12:55 AM 24.8 °F 20.5 °F 19.4 °F 80% 30.14 in 10.0 mi WSW 3.5 mph - N/A   Clear
1:15 AM 24.8 °F 19.1 °F 19.4 °F 80% 30.14 in 10.0 mi SW 4.6 mph - N/A   Clear
1:35 AM 24.8 °F 17.9 °F 19.4 °F 80% 30.14 in 7.0 mi SW 5.8 mph - N/A   Clear
1:55 AM 24.8 °F 16.9 °F 21.2 °F 86% 30.14 in 7.0 mi SW 6.9 mph - N/A   Clear
2:15 AM 24.8 °F 16.1 °F 21.2 °F 86% 30.15 in 7.0 mi SW 8.1 mph - N/A   Clear
2:24 AM 24.8 °F 16.9 °F 21.2 °F 86% 30.15 in 7.0 mi SW 6.9 mph - N/A   Clear
2:52 AM 24.8 °F 17.9 °F 21.2 °F 86% 30.15 in 7.0 mi SW 5.8 mph - N/A   Clear
2:55 AM 24.8 °F 17.9 °F 21.2 °F 86% 30.15 in 10.0 mi SW 5.8 mph - N/A   Clear
3:15 AM 24.8 °F 16.9 °F 21.2 °F 86% 30.15 in 10.0 mi SW 6.9 mph - N/A   Clear
3:34 AM 24.8 °F 16.9 °F 21.2 °F 86% 30.15 in 7.0 mi SW 6.9 mph - N/A   Clear
3:55 AM 24.8 °F 16.9 °F 21.2 °F 86% 30.15 in 7.0 mi SW 6.9 mph - N/A   Clear
4:15 AM 24.8 °F 17.9 °F 21.2 °F 86% 30.15 in 7.0 mi SW 5.8 mph - N/A   Clear
4:34 AM 24.8 °F 17.9 °F 21.2 °F 86% 30.15 in 7.0 mi SW 5.8 mph - N/A   Clear
4:55 AM 24.8 °F 17.9 °F 21.2 °F 86% 30.15 in 7.0 mi SW 5.8 mph - N/A   Clear
5:15 AM 24.8 °F 19.1 °F 21.2 °F 86% 30.14 in 7.0 mi SSW 4.6 mph - N/A   Clear
5:35 AM 24.8 °F 17.9 °F 21.2 °F 86% 30.14 in 7.0 mi SSW 5.8 mph - N/A   Clear
5:55 AM 24.8 °F 17.9 °F 21.2 °F 86% 30.14 in 7.0 mi SSW 5.8 mph - N/A   Clear
6:15 AM 24.8 °F 16.9 °F 21.2 °F 86% 30.14 in 7.0 mi SSW 6.9 mph - N/A   Clear
6:35 AM 24.8 °F 20.5 °F 21.2 °F 86% 30.14 in 7.0 mi SSW 3.5 mph - N/A   Clear
6:55 AM 24.8 °F - 21.2 °F 86% 30.16 in 7.0 mi Calm Calm - N/A   Clear
7:15 AM 24.8 °F 19.1 °F 21.2 °F 86% 30.16 in 7.0 mi South 4.6 mph - N/A   Clear
7:35 AM 24.8 °F 19.1 °F 21.2 °F 86% 30.17 in 7.0 mi South 4.6 mph - N/A   Clear
7:55 AM 24.8 °F 20.5 °F 21.2 °F 86% 30.17 in 7.0 mi South 3.5 mph - N/A   Clear
8:14 AM 24.8 °F 19.1 °F 21.2 °F 86% 30.17 in 7.0 mi South 4.6 mph - N/A   Clear
8:35 AM 24.8 °F 20.5 °F 21.2 °F 86% 30.17 in 7.0 mi South 3.5 mph - N/A   Clear
9:15 AM 26.6 °F 21.2 °F 21.2 °F 80% 30.19 in 5.0 mi South 4.6 mph - N/A   Clear
9:35 AM 26.6 °F 21.2 °F 21.2 °F 80% 30.20 in 5.0 mi South 4.6 mph - N/A   Haze
9:55 AM 26.6 °F 21.2 °F 23.0 °F 86% 30.20 in 5.0 mi South 4.6 mph - N/A   Clear
10:15 AM 28.4 °F 21.2 °F 23.0 °F 80% 30.21 in 7.0 mi South 6.9 mph - N/A   Clear
10:35 AM 30.2 °F 23.4 °F 24.8 °F 80% 30.21 in 7.0 mi SSW 6.9 mph - N/A   Clear
10:54 AM 30.2 °F 21.9 °F 24.8 °F 80% 30.22 in 7.0 mi SSW 9.2 mph - N/A   Clear
11:15 AM 30.2 °F 22.6 °F 24.8 °F 80% 30.21 in 7.0 mi SSW 8.1 mph - N/A   Clear
11:35 AM 32.0 °F 25.6 °F 26.6 °F 80% 30.20 in 7.0 mi SSW 6.9 mph - N/A   Clear
11:54 AM 33.8 °F 27.7 °F 26.6 °F 75% 30.20 in 7.0 mi SSW 6.9 mph - N/A   Clear
12:15 PM 33.8 °F 27.0 °F 26.6 °F 75% 30.19 in 7.0 mi SSW 8.1 mph - N/A   Clear
12:35 PM 33.8 °F 27.0 °F 26.6 °F 75% 30.18 in 7.0 mi SSW 8.1 mph - N/A   Clear
12:54 PM 33.8 °F 29.6 °F 26.6 °F 75% 30.18 in 10.0 mi SSW 4.6 mph - N/A   Clear
1:15 PM 33.8 °F 29.6 °F 26.6 °F 75% 30.18 in 7.0 mi SW 4.6 mph - N/A   Clear
1:35 PM 35.6 °F 32.8 °F 26.6 °F 70% 30.17 in 10.0 mi SW 3.5 mph - N/A   Clear
1:54 PM 35.6 °F 32.8 °F 26.6 °F 70% 30.17 in 7.0 mi SW 3.5 mph - N/A   Clear
2:15 PM 35.6 °F 29.9 °F 26.6 °F 70% 30.16 in 10.0 mi South 6.9 mph - N/A   Clear
2:55 PM 37.4 °F 30.8 °F 26.6 °F 65% 30.16 in 10.0 mi South 9.2 mph - N/A   Clear
3:15 PM 37.4 °F 32.8 °F 26.6 °F 65% 30.16 in 10.0 mi South 5.8 mph - N/A   Clear
3:35 PM 37.4 °F 31.4 °F 26.6 °F 65% 30.17 in 10.0 mi South 8.1 mph - N/A   Clear
3:55 PM 37.4 °F 30.3 °F 26.6 °F 65% 30.17 in 10.0 mi South 10.4 mph - N/A   Clear
4:14 PM 35.6 °F 28.0 °F 26.6 °F 70% 30.17 in 10.0 mi South 10.4 mph - N/A   Clear
4:35 PM 35.6 °F 29.2 °F 26.6 °F 70% 30.18 in 10.0 mi SSW 8.1 mph - N/A   Clear
4:55 PM 35.6 °F 31.7 °F 26.6 °F 70% 30.18 in 10.0 mi South 4.6 mph - N/A   Clear
5:15 PM 33.8 °F 28.6 °F 26.6 °F 75% 30.17 in 10.0 mi South 5.8 mph - N/A   Clear
5:35 PM 33.8 °F 30.8 °F 26.6 °F 75% 30.17 in 10.0 mi SSE 3.5 mph - N/A   Clear
5:55 PM 33.8 °F - 26.6 °F 75% 30.17 in 10.0 mi Calm Calm - N/A   Clear
6:15 PM 33.8 °F 29.6 °F 24.8 °F 70% 30.16 in 10.0 mi South 4.6 mph - N/A   Clear
6:34 PM 32.0 °F 26.4 °F 24.8 °F 75% 30.16 in 10.0 mi SSE 5.8 mph - N/A   Clear
6:55 PM 32.0 °F 26.4 °F 24.8 °F 75% 30.16 in 10.0 mi SSE 5.8 mph - N/A   Clear
7:15 PM 30.2 °F 23.4 °F 24.8 °F 80% 30.16 in 10.0 mi South 6.9 mph - N/A   Clear
7:35 PM 30.2 °F 23.4 °F 24.8 °F 80% 30.16 in 10.0 mi South 6.9 mph - N/A   Clear
7:55 PM 30.2 °F 22.6 °F 24.8 °F 80% 30.15 in 10.0 mi SSE 8.1 mph - N/A   Clear
8:14 PM 30.2 °F 21.9 °F 24.8 °F 80% 30.15 in 10.0 mi South 9.2 mph - N/A   Clear
8:35 PM 32.0 °F 23.6 °F 24.8 °F 75% 30.14 in 10.0 mi South 10.4 mph - N/A   Clear
8:55 PM 32.0 °F 23.6 °F 26.6 °F 80% 30.14 in 10.0 mi South 10.4 mph - N/A   Clear
9:15 PM 32.0 °F 24.2 °F 26.6 °F 80% 30.14 in 10.0 mi South 9.2 mph - N/A   Clear
9:35 PM 32.0 °F 24.8 °F 26.6 °F 80% 30.15 in 10.0 mi South 8.1 mph - N/A   Clear
9:55 PM 32.0 °F 23.6 °F 26.6 °F 80% 30.14 in 10.0 mi South 10.4 mph - N/A   Clear
10:14 PM 32.0 °F 24.2 °F 26.6 °F 80% 30.13 in 10.0 mi South 9.2 mph - N/A   Clear
10:34 PM 32.0 °F 24.2 °F 26.6 °F 80% 30.13 in 10.0 mi South 9.2 mph - N/A   Clear
11:14 PM 33.8 °F 24.3 °F 26.6 °F 75% 30.12 in 10.0 mi South 13.8 mph - N/A   Clear
11:35 PM 33.8 °F 25.3 °F 26.6 °F 75% 30.12 in 10.0 mi South 11.5 mph - N/A   Clear